Time,TemperatureF,DewpointF,PressureIn,WindDirection,WindDirectionDegrees,WindSpeedMPH,WindSpeedGustMPH,Humidity,HourlyPrecipIn,Conditions,Clouds,dailyrainin,SoftwareType,DateUTC
2013-01-04 00:05:00,32.9,20.5,30.35,ESE,114,1.0,8.0,60,0.00,,,0.00,Wunderground v.1.13,2013-01-04 05:05:00,
2013-01-04 00:10:00,32.9,20.5,30.35,ESE,121,1.0,8.0,60,0.00,,,0.00,Wunderground v.1.13,2013-01-04 05:10:00,
2013-01-04 00:15:00,32.9,20.5,30.35,ESE,106,2.0,2.0,60,0.00,,,0.00,Wunderground v.1.13,2013-01-04 05:15:00,
2013-01-04 00:20:00,32.9,20.5,30.34,ESE,106,2.0,8.0,60,0.00,,,0.00,Wunderground v.1.13,2013-01-04 05:20:00,
2013-01-04 00:25:00,32.9,20.5,30.34,ESE,119,2.0,2.0,60,0.00,,,0.00,Wunderground v.1.13,2013-01-04 05:25:00,
2013-01-04 00:30:00,32.9,20.5,30.34,East,100,1.0,8.0,60,0.00,,,0.00,Wunderground v.1.13,2013-01-04 05:30:00,
2013-01-04 00:35:00,32.8,20.8,30.34,ESE,116,2.0,2.0,61,0.00,,,0.00,Wunderground v.1.13,2013-01-04 05:35:00,
2013-01-04 00:40:00,32.8,20.8,30.34,East,96,2.0,8.0,61,0.00,,,0.00,Wunderground v.1.13,2013-01-04 05:40:00,
2013-01-04 00:45:00,32.8,21.2,30.34,ESE,113,2.0,8.0,62,0.00,,,0.00,Wunderground v.1.13,2013-01-04 05:45:00,
2013-01-04 00:55:00,32.7,21.1,30.34,ESE,113,2.0,2.0,62,0.00,,,0.00,Wunderground v.1.13,2013-01-04 05:55:00,
2013-01-04 01:00:00,32.7,21.1,30.34,East,96,3.0,3.0,62,0.00,,,0.00,Wunderground v.1.13,2013-01-04 06:00:00,
2013-01-04 01:05:00,32.7,21.5,30.34,East,95,3.0,3.0,63,0.00,,,0.00,Wunderground v.1.13,2013-01-04 06:05:00,
2013-01-04 01:10:00,32.7,21.5,30.34,ESE,103,2.0,8.0,63,0.00,,,0.00,Wunderground v.1.13,2013-01-04 06:10:00,
2013-01-04 01:15:00,32.5,21.3,30.34,ESE,107,2.0,2.0,63,0.00,,,0.00,Wunderground v.1.13,2013-01-04 06:15:00,
2013-01-04 01:20:00,32.5,21.3,30.34,ESE,102,2.0,8.0,63,0.00,,,0.00,Wunderground v.1.13,2013-01-04 06:20:00,
2013-01-04 01:25:00,32.5,21.7,30.34,ESE,102,2.0,2.0,64,0.00,,,0.00,Wunderground v.1.13,2013-01-04 06:25:00,
2013-01-04 01:30:00,32.5,21.3,30.34,East,96,3.0,8.0,63,0.00,,,0.00,Wunderground v.1.13,2013-01-04 06:30:00,
2013-01-04 01:35:00,32.5,21.7,30.33,East,100,4.0,4.0,64,0.00,,,0.00,Wunderground v.1.13,2013-01-04 06:35:00,
2013-01-04 01:40:00,32.4,21.6,30.33,East,100,4.0,8.0,64,0.00,,,0.00,Wunderground v.1.13,2013-01-04 06:40:00,
2013-01-04 01:45:00,32.4,21.6,30.33,ESE,123,3.0,8.0,64,0.00,,,0.00,Wunderground v.1.13,2013-01-04 06:45:00,
2013-01-04 01:55:00,32.4,21.9,30.33,ESE,116,3.0,3.0,65,0.00,,,0.00,Wunderground v.1.13,2013-01-04 06:55:00,
2013-01-04 02:05:00,32.4,21.9,30.34,ESE,104,3.0,3.0,65,0.00,,,0.00,Wunderground v.1.13,2013-01-04 07:05:00,
2013-01-04 02:10:00,32.4,21.9,30.34,ESE,102,3.0,3.0,65,0.00,,,0.00,Wunderground v.1.13,2013-01-04 07:10:00,
2013-01-04 02:15:00,32.4,21.9,30.34,East,85,3.0,3.0,65,0.00,,,0.00,Wunderground v.1.13,2013-01-04 07:15:00,
2013-01-04 02:20:00,32.4,21.9,30.34,SE,127,3.0,3.0,65,0.00,,,0.00,Wunderground v.1.13,2013-01-04 07:20:00,
2013-01-04 02:30:00,32.4,21.9,30.34,East,85,3.0,8.0,65,0.00,,,0.00,Wunderground v.1.13,2013-01-04 07:30:00,
2013-01-04 02:35:00,32.4,21.9,30.35,East,93,3.0,3.0,65,0.00,,,0.00,Wunderground v.1.13,2013-01-04 07:35:00,
2013-01-04 02:40:00,32.4,21.9,30.35,ESE,120,5.0,5.0,65,0.00,,,0.00,Wunderground v.1.13,2013-01-04 07:40:00,
2013-01-04 02:45:00,32.4,21.9,30.35,ESE,112,4.0,8.0,65,0.00,,,0.00,Wunderground v.1.13,2013-01-04 07:45:00,
2013-01-04 02:50:00,32.4,21.9,30.35,ESE,119,3.0,8.0,65,0.00,,,0.00,Wunderground v.1.13,2013-01-04 07:50:00,
2013-01-04 02:55:00,32.4,21.9,30.35,SE,133,3.0,3.0,65,0.00,,,0.00,Wunderground v.1.13,2013-01-04 07:55:00,
2013-01-04 03:05:00,32.4,21.9,30.34,SSE,167,4.0,8.0,65,0.00,,,0.00,Wunderground v.1.13,2013-01-04 08:05:00,
2013-01-04 03:10:00,32.4,21.6,30.34,SSE,157,4.0,4.0,64,0.00,,,0.00,Wunderground v.1.13,2013-01-04 08:10:00,
2013-01-04 03:15:00,32.4,21.6,30.34,SE,130,3.0,3.0,64,0.00,,,0.00,Wunderground v.1.13,2013-01-04 08:15:00,
2013-01-04 03:20:00,32.5,21.7,30.34,SE,126,2.0,8.0,64,0.00,,,0.00,Wunderground v.1.13,2013-01-04 08:20:00,
2013-01-04 03:25:00,32.5,22.0,30.34,SSW,199,1.0,8.0,65,0.00,,,0.00,Wunderground v.1.13,2013-01-04 08:25:00,
2013-01-04 03:30:00,32.5,22.0,30.34,SE,124,1.0,8.0,65,0.00,,,0.00,Wunderground v.1.13,2013-01-04 08:30:00,
2013-01-04 03:35:00,32.5,22.0,30.34,ESE,121,1.0,8.0,65,0.00,,,0.00,Wunderground v.1.13,2013-01-04 08:35:00,
2013-01-04 03:40:00,32.5,21.7,30.34,ESE,123,2.0,8.0,64,0.00,,,0.00,Wunderground v.1.13,2013-01-04 08:40:00,
2013-01-04 03:45:00,32.4,21.6,30.34,ESE,123,2.0,8.0,64,0.00,,,0.00,Wunderground v.1.13,2013-01-04 08:45:00,
2013-01-04 03:50:00,32.4,21.9,30.34,ESE,123,1.0,8.0,65,0.00,,,0.00,Wunderground v.1.13,2013-01-04 08:50:00,
2013-01-04 03:55:00,32.4,21.6,30.34,ESE,112,1.0,8.0,64,0.00,,,0.00,Wunderground v.1.13,2013-01-04 08:55:00,
2013-01-04 04:05:00,32.4,21.9,30.34,ESE,113,1.0,1.0,65,0.00,,,0.00,Wunderground v.1.13,2013-01-04 09:05:00,
2013-01-04 04:10:00,32.4,21.9,30.34,SSE,161,1.0,8.0,65,0.00,,,0.00,Wunderground v.1.13,2013-01-04 09:10:00,
2013-01-04 04:15:00,32.4,21.9,30.34,SSE,161,0.0,8.0,65,0.00,,,0.00,Wunderground v.1.13,2013-01-04 09:15:00,
2013-01-04 04:20:00,32.4,21.9,30.33,SSE,161,0.0,8.0,65,0.00,,,0.00,Wunderground v.1.13,2013-01-04 09:20:00,
2013-01-04 04:25:00,32.4,21.9,30.33,South,185,1.0,1.0,65,0.00,,,0.00,Wunderground v.1.13,2013-01-04 09:25:00,
2013-01-04 04:30:00,32.5,22.4,30.33,South,179,1.0,1.0,66,0.00,,,0.00,Wunderground v.1.13,2013-01-04 09:30:00,
2013-01-04 04:40:00,32.5,22.0,30.34,SE,124,0.0,8.0,65,0.00,,,0.00,Wunderground v.1.13,2013-01-04 09:40:00,
2013-01-04 04:45:00,32.5,22.4,30.34,South,181,0.0,8.0,66,0.00,,,0.00,Wunderground v.1.13,2013-01-04 09:45:00,
2013-01-04 04:50:00,32.4,21.9,30.34,South,189,0.0,8.0,65,0.00,,,0.00,Wunderground v.1.13,2013-01-04 09:50:00,
2013-01-04 04:55:00,32.4,21.9,30.34,ESE,107,0.0,8.0,65,0.00,,,0.00,Wunderground v.1.13,2013-01-04 09:55:00,
2013-01-04 05:00:00,32.4,21.9,30.34,ENE,72,0.0,8.0,65,0.00,,,0.00,Wunderground v.1.13,2013-01-04 10:00:00,
2013-01-04 05:10:00,32.5,21.7,30.34,SE,140,1.0,1.0,64,0.00,,,0.00,Wunderground v.1.13,2013-01-04 10:10:00,
2013-01-04 05:15:00,32.4,21.2,30.34,ESE,116,2.0,8.0,63,0.00,,,0.00,Wunderground v.1.13,2013-01-04 10:15:00,
2013-01-04 05:20:00,32.5,21.7,30.34,ESE,103,1.0,8.0,64,0.00,,,0.00,Wunderground v.1.13,2013-01-04 10:20:00,
2013-01-04 05:25:00,32.5,21.7,30.34,SE,143,1.0,1.0,64,0.00,,,0.00,Wunderground v.1.13,2013-01-04 10:25:00,
2013-01-04 05:30:00,32.5,21.7,30.34,SE,124,1.0,1.0,64,0.00,,,0.00,Wunderground v.1.13,2013-01-04 10:30:00,
2013-01-04 05:35:00,32.5,21.7,30.34,ESE,114,1.0,1.0,64,0.00,,,0.00,Wunderground v.1.13,2013-01-04 10:35:00,
2013-01-04 05:45:00,32.5,22.0,30.34,SE,127,1.0,8.0,65,0.00,,,0.00,Wunderground v.1.13,2013-01-04 10:45:00,
2013-01-04 05:50:00,32.5,21.7,30.35,East,80,1.0,1.0,64,0.00,,,0.00,Wunderground v.1.13,2013-01-04 10:50:00,
2013-01-04 05:55:00,32.5,21.3,30.35,SE,130,2.0,2.0,63,0.00,,,0.00,Wunderground v.1.13,2013-01-04 10:55:00,
2013-01-04 06:00:00,32.5,21.3,30.35,East,89,2.0,2.0,63,0.00,,,0.00,Wunderground v.1.13,2013-01-04 11:00:00,
2013-01-04 06:05:00,32.4,21.2,30.34,SE,126,1.0,8.0,63,0.00,,,0.00,Wunderground v.1.13,2013-01-04 11:05:00,
2013-01-04 06:15:00,32.4,21.2,30.34,SE,133,1.0,1.0,63,0.00,,,0.00,Wunderground v.1.13,2013-01-04 11:15:00,
2013-01-04 06:20:00,32.5,21.3,30.34,SE,136,1.0,8.0,63,0.00,,,0.00,Wunderground v.1.13,2013-01-04 11:20:00,
2013-01-04 06:25:00,32.5,21.7,30.34,South,182,1.0,1.0,64,0.00,,,0.00,Wunderground v.1.13,2013-01-04 11:25:00,
2013-01-04 06:30:00,32.5,21.7,30.34,SE,124,1.0,8.0,64,0.00,,,0.00,Wunderground v.1.13,2013-01-04 11:30:00,
2013-01-04 06:35:00,32.4,20.8,30.34,SSW,203,1.0,8.0,62,0.00,,,0.00,Wunderground v.1.13,2013-01-04 11:35:00,
2013-01-04 06:40:00,32.4,20.8,30.34,SSE,164,1.0,8.0,62,0.00,,,0.00,Wunderground v.1.13,2013-01-04 11:40:00,
2013-01-04 06:50:00,32.4,20.8,30.35,SE,141,1.0,8.0,62,0.00,,,0.00,Wunderground v.1.13,2013-01-04 11:50:00,
2013-01-04 06:55:00,32.4,21.2,30.35,SE,124,1.0,1.0,63,0.00,,,0.00,Wunderground v.1.13,2013-01-04 11:55:00,
2013-01-04 07:00:00,32.4,20.4,30.35,SE,128,1.0,8.0,61,0.00,,,0.00,Wunderground v.1.13,2013-01-04 12:00:00,
2013-01-04 07:05:00,32.4,20.0,30.35,ESE,119,2.0,8.0,60,0.00,,,0.00,Wunderground v.1.13,2013-01-04 12:05:00,
2013-01-04 07:10:00,32.4,20.4,30.35,ESE,113,2.0,8.0,61,0.00,,,0.00,Wunderground v.1.13,2013-01-04 12:10:00,
2013-01-04 07:15:00,32.4,20.4,30.35,ESE,119,2.0,8.0,61,0.00,,,0.00,Wunderground v.1.13,2013-01-04 12:15:00,
2013-01-04 07:20:00,32.4,20.0,30.36,SSE,150,3.0,3.0,60,0.00,,,0.00,Wunderground v.1.13,2013-01-04 12:20:00,
2013-01-04 07:25:00,32.4,19.7,30.36,ESE,113,3.0,8.0,59,0.00,,,0.00,Wunderground v.1.13,2013-01-04 12:25:00,
2013-01-04 07:30:00,32.4,20.4,30.36,SSE,157,2.0,8.0,61,0.00,,,0.00,Wunderground v.1.13,2013-01-04 12:30:00,
2013-01-04 07:35:00,32.2,19.5,30.36,SE,141,3.0,8.0,59,0.00,,,0.00,Wunderground v.1.13,2013-01-04 12:35:00,
2013-01-04 07:40:00,32.4,20.0,30.36,SE,127,3.0,3.0,60,0.00,,,0.00,Wunderground v.1.13,2013-01-04 12:40:00,
2013-01-04 07:50:00,32.4,20.8,30.36,ESE,116,0.0,8.0,62,0.00,,,0.00,Wunderground v.1.13,2013-01-04 12:50:00,
2013-01-04 07:55:00,32.4,20.0,30.36,ESE,116,3.0,8.0,60,0.00,,,0.00,Wunderground v.1.13,2013-01-04 12:55:00,
2013-01-04 08:00:00,32.4,20.0,30.36,ESE,116,3.0,3.0,60,0.00,,,0.00,Wunderground v.1.13,2013-01-04 13:00:00,
2013-01-04 08:05:00,32.4,19.7,30.36,ESE,121,2.0,8.0,59,0.00,,,0.00,Wunderground v.1.13,2013-01-04 13:05:00,
2013-01-04 08:10:00,32.2,19.5,30.36,ESE,109,3.0,3.0,59,0.00,,,0.00,Wunderground v.1.13,2013-01-04 13:10:00,
2013-01-04 08:15:00,32.2,19.5,30.36,East,79,3.0,8.0,59,0.00,,,0.00,Wunderground v.1.13,2013-01-04 13:15:00,
2013-01-04 08:20:00,32.2,19.5,30.35,ESE,106,3.0,3.0,59,0.00,,,0.00,Wunderground v.1.13,2013-01-04 13:20:00,
2013-01-04 08:25:00,32.1,19.4,30.35,SSE,155,4.0,4.0,59,0.00,,,0.00,Wunderground v.1.13,2013-01-04 13:25:00,
2013-01-04 08:30:00,32.1,19.8,30.35,ESE,107,2.0,8.0,60,0.00,,,0.00,Wunderground v.1.13,2013-01-04 13:30:00,
2013-01-04 08:35:00,31.9,19.6,30.36,SE,126,1.0,1.0,60,0.00,,,0.00,Wunderground v.1.13,2013-01-04 13:35:00,
2013-01-04 08:40:00,31.9,19.6,30.36,ESE,109,2.0,8.0,60,0.00,,,0.00,Wunderground v.1.13,2013-01-04 13:40:00,
2013-01-04 08:45:00,31.9,20.0,30.36,ESE,110,2.0,2.0,61,0.00,,,0.00,Wunderground v.1.13,2013-01-04 13:45:00,
2013-01-04 08:55:00,32.1,19.8,30.36,East,97,3.0,8.0,60,0.00,,,0.00,Wunderground v.1.13,2013-01-04 13:55:00,
2013-01-04 09:00:00,32.1,19.8,30.36,ESE,113,2.0,2.0,60,0.00,,,0.00,Wunderground v.1.13,2013-01-04 14:00:00,
2013-01-04 09:05:00,32.2,19.5,30.36,ESE,121,2.0,2.0,59,0.00,,,0.00,Wunderground v.1.13,2013-01-04 14:05:00,
2013-01-04 09:10:00,32.4,19.7,30.36,East,99,2.0,8.0,59,0.00,,,0.00,Wunderground v.1.13,2013-01-04 14:10:00,
2013-01-04 09:15:00,32.4,19.7,30.36,East,100,2.0,8.0,59,0.00,,,0.00,Wunderground v.1.13,2013-01-04 14:15:00,
2013-01-04 09:20:00,32.5,19.7,30.36,East,97,3.0,3.0,59,0.00,,,0.00,Wunderground v.1.13,2013-01-04 14:20:00,
2013-01-04 09:30:00,32.8,20.0,30.36,East,85,2.0,8.0,59,0.00,,,0.00,Wunderground v.1.13,2013-01-04 14:30:00,
2013-01-04 09:35:00,32.9,19.7,30.36,ESE,119,3.0,8.0,58,0.00,,,0.00,Wunderground v.1.13,2013-01-04 14:35:00,
2013-01-04 09:40:00,33.1,19.9,30.36,SSE,148,3.0,3.0,58,0.00,,,0.00,Wunderground v.1.13,2013-01-04 14:40:00,
2013-01-04 09:45:00,33.1,19.9,30.36,ESE,117,3.0,8.0,58,0.00,,,0.00,Wunderground v.1.13,2013-01-04 14:45:00,
2013-01-04 09:50:00,33.2,20.0,30.37,ESE,113,2.0,2.0,58,0.00,,,0.00,Wunderground v.1.13,2013-01-04 14:50:00,
2013-01-04 10:00:00,33.5,20.3,30.37,ESE,119,3.0,3.0,58,0.00,,,0.00,Wunderground v.1.13,2013-01-04 15:00:00,
2013-01-04 10:05:00,33.8,20.6,30.37,ESE,109,1.0,1.0,58,0.00,,,0.00,Wunderground v.1.13,2013-01-04 15:05:00,
2013-01-04 10:10:00,34.0,20.3,30.37,East,86,1.0,8.0,57,0.00,,,0.00,Wunderground v.1.13,2013-01-04 15:10:00,
2013-01-04 10:15:00,34.1,20.4,30.37,SSE,155,2.0,2.0,57,0.00,,,0.00,Wunderground v.1.13,2013-01-04 15:15:00,
2013-01-04 10:20:00,34.3,21.0,30.37,ESE,109,2.0,8.0,58,0.00,,,0.00,Wunderground v.1.13,2013-01-04 15:20:00,
2013-01-04 10:25:00,34.3,20.6,30.37,SSE,168,2.0,2.0,57,0.00,,,0.00,Wunderground v.1.13,2013-01-04 15:25:00,
2013-01-04 10:30:00,34.4,21.1,30.37,ESE,123,2.0,2.0,58,0.00,,,0.00,Wunderground v.1.13,2013-01-04 15:30:00,
2013-01-04 10:35:00,34.6,20.9,30.38,SE,137,2.0,8.0,57,0.00,,,0.00,Wunderground v.1.13,2013-01-04 15:35:00,
2013-01-04 10:40:00,34.6,20.9,30.38,ESE,113,3.0,3.0,57,0.00,,,0.00,Wunderground v.1.13,2013-01-04 15:40:00,
2013-01-04 10:45:00,34.6,20.9,30.38,East,96,4.0,8.0,57,0.00,,,0.00,Wunderground v.1.13,2013-01-04 15:45:00,
2013-01-04 10:55:00,34.7,21.4,30.38,ESE,119,4.0,8.0,58,0.00,,,0.00,Wunderground v.1.13,2013-01-04 15:55:00,
2013-01-04 11:00:00,35.2,21.9,30.38,SSE,148,2.0,2.0,58,0.00,,,0.00,Wunderground v.1.13,2013-01-04 16:00:00,
2013-01-04 11:05:00,35.3,21.2,30.38,SE,133,2.0,8.0,56,0.00,,,0.00,Wunderground v.1.13,2013-01-04 16:05:00,
2013-01-04 11:10:00,35.5,20.9,30.38,ESE,102,4.0,4.0,55,0.00,,,0.00,Wunderground v.1.13,2013-01-04 16:10:00,
2013-01-04 11:15:00,35.6,21.0,30.38,SE,127,3.0,3.0,55,0.00,,,0.00,Wunderground v.1.13,2013-01-04 16:15:00,
2013-01-04 11:20:00,35.9,21.3,30.38,SW,216,2.0,8.0,55,0.00,,,0.00,Wunderground v.1.13,2013-01-04 16:20:00,
2013-01-04 11:25:00,35.9,20.9,30.38,ESE,121,3.0,3.0,54,0.00,,,0.00,Wunderground v.1.13,2013-01-04 16:25:00,
2013-01-04 11:35:00,36.2,21.1,30.38,ESE,113,4.0,4.0,54,0.00,,,0.00,Wunderground v.1.13,2013-01-04 16:35:00,
2013-01-04 11:40:00,36.5,21.0,30.38,ESE,119,3.0,8.0,53,0.00,,,0.00,Wunderground v.1.13,2013-01-04 16:40:00,
2013-01-04 11:45:00,36.6,21.1,30.38,SE,133,3.0,3.0,53,0.00,,,0.00,Wunderground v.1.13,2013-01-04 16:45:00,
2013-01-04 11:50:00,36.9,21.3,30.37,East,99,3.0,3.0,53,0.00,,,0.00,Wunderground v.1.13,2013-01-04 16:50:00,
2013-01-04 11:55:00,37.0,21.4,30.37,ESE,117,4.0,4.0,53,0.00,,,0.00,Wunderground v.1.13,2013-01-04 16:55:00,
2013-01-04 12:00:00,37.2,21.2,30.37,SE,137,5.0,5.0,52,0.00,,,0.00,Wunderground v.1.13,2013-01-04 17:00:00,
2013-01-04 12:10:00,37.5,21.9,30.37,SE,133,4.0,4.0,53,0.00,,,0.00,Wunderground v.1.13,2013-01-04 17:10:00,
2013-01-04 12:15:00,37.8,21.3,30.37,SSE,165,3.0,3.0,51,0.00,,,0.00,Wunderground v.1.13,2013-01-04 17:15:00,
2013-01-04 12:20:00,38.2,22.1,30.36,SE,144,3.0,3.0,52,0.00,,,0.00,Wunderground v.1.13,2013-01-04 17:20:00,
2013-01-04 12:25:00,38.5,21.5,30.36,SE,134,2.0,8.0,50,0.00,,,0.00,Wunderground v.1.13,2013-01-04 17:25:00,
2013-01-04 12:30:00,38.5,21.0,30.36,ESE,103,3.0,8.0,49,0.00,,,0.00,Wunderground v.1.13,2013-01-04 17:30:00,
2013-01-04 12:40:00,38.5,21.0,30.36,East,99,4.0,4.0,49,0.00,,,0.00,Wunderground v.1.13,2013-01-04 17:40:00,
2013-01-04 12:45:00,38.5,20.5,30.36,SE,130,3.0,3.0,48,0.00,,,0.00,Wunderground v.1.13,2013-01-04 17:45:00,
2013-01-04 12:50:00,38.8,20.8,30.35,SE,131,4.0,8.0,48,0.00,,,0.00,Wunderground v.1.13,2013-01-04 17:50:00,
2013-01-04 12:55:00,38.8,20.3,30.35,ESE,119,4.0,8.0,47,0.00,,,0.00,Wunderground v.1.13,2013-01-04 17:55:00,
2013-01-04 13:00:00,39.1,21.0,30.35,SE,126,4.0,4.0,48,0.00,,,0.00,Wunderground v.1.13,2013-01-04 18:00:00,
2013-01-04 13:05:00,39.1,19.5,30.34,ESE,116,4.0,8.0,45,0.00,,,0.00,Wunderground v.1.13,2013-01-04 18:05:00,
2013-01-04 13:15:00,38.8,19.8,30.34,SSE,151,6.0,6.0,46,0.00,,,0.00,Wunderground v.1.13,2013-01-04 18:15:00,
2013-01-04 13:20:00,38.8,20.8,30.34,ESE,113,5.0,8.0,48,0.00,,,0.00,Wunderground v.1.13,2013-01-04 18:20:00,
2013-01-04 13:25:00,38.8,19.8,30.34,SE,128,4.0,8.0,46,0.00,,,0.00,Wunderground v.1.13,2013-01-04 18:25:00,
2013-01-04 13:30:00,38.6,18.5,30.34,ESE,112,5.0,8.0,44,0.00,,,0.00,Wunderground v.1.13,2013-01-04 18:30:00,
2013-01-04 13:35:00,39.1,21.0,30.33,ESE,110,5.0,5.0,48,0.00,,,0.00,Wunderground v.1.13,2013-01-04 18:35:00,
2013-01-04 13:45:00,39.5,19.4,30.33,SSE,161,4.0,4.0,44,0.00,,,0.00,Wunderground v.1.13,2013-01-04 18:45:00,
2013-01-04 13:50:00,39.5,19.9,30.32,SE,140,4.0,8.0,45,0.00,,,0.00,Wunderground v.1.13,2013-01-04 18:50:00,
2013-01-04 13:55:00,39.8,20.2,30.32,SE,133,3.0,3.0,45,0.00,,,0.00,Wunderground v.1.13,2013-01-04 18:55:00,
2013-01-04 14:00:00,39.9,19.2,30.32,ESE,121,3.0,8.0,43,0.00,,,0.00,Wunderground v.1.13,2013-01-04 19:00:00,
2013-01-04 14:05:00,39.9,19.2,30.32,ESE,112,4.0,11.0,43,0.00,,,0.00,Wunderground v.1.13,2013-01-04 19:05:00,
2013-01-04 14:10:00,39.8,19.6,30.32,SSE,160,5.0,5.0,44,0.00,,,0.00,Wunderground v.1.13,2013-01-04 19:10:00,
2013-01-04 14:15:00,39.6,18.4,30.32,ESE,114,6.0,8.0,42,0.00,,,0.00,Wunderground v.1.13,2013-01-04 19:15:00,
2013-01-04 14:20:00,39.9,20.8,30.32,SE,126,4.0,4.0,46,0.00,,,0.00,Wunderground v.1.13,2013-01-04 19:20:00,
2013-01-04 14:25:00,40.2,21.0,30.32,SSE,168,2.0,2.0,46,0.00,,,0.00,Wunderground v.1.13,2013-01-04 19:25:00,
2013-01-04 14:30:00,40.1,19.4,30.32,SSE,157,3.0,8.0,43,0.00,,,0.00,Wunderground v.1.13,2013-01-04 19:30:00,
2013-01-04 14:35:00,39.6,17.8,30.32,ESE,112,5.0,8.0,41,0.00,,,0.00,Wunderground v.1.13,2013-01-04 19:35:00,
2013-01-04 14:40:00,39.5,18.3,30.32,SE,128,6.0,8.0,42,0.00,,,0.00,Wunderground v.1.13,2013-01-04 19:40:00,
2013-01-04 14:50:00,39.2,18.0,30.32,SE,133,6.0,6.0,42,0.00,,,0.00,Wunderground v.1.13,2013-01-04 19:50:00,
2013-01-04 14:55:00,39.3,19.7,30.32,ESE,109,6.0,6.0,45,0.00,,,0.00,Wunderground v.1.13,2013-01-04 19:55:00,
2013-01-04 15:00:00,39.3,18.6,30.32,SE,137,4.0,8.0,43,0.00,,,0.00,Wunderground v.1.13,2013-01-04 20:00:00,
2013-01-04 15:05:00,39.2,18.5,30.33,SE,128,6.0,8.0,43,0.00,,,0.00,Wunderground v.1.13,2013-01-04 20:05:00,
2013-01-04 15:10:00,39.1,18.5,30.33,SE,134,6.0,6.0,43,0.00,,,0.00,Wunderground v.1.13,2013-01-04 20:10:00,
2013-01-04 15:20:00,39.1,18.5,30.34,ESE,120,4.0,4.0,43,0.00,,,0.00,Wunderground v.1.13,2013-01-04 20:20:00,
2013-01-04 15:25:00,39.3,20.7,30.34,SSW,212,3.0,8.0,47,0.00,,,0.00,Wunderground v.1.13,2013-01-04 20:25:00,
2013-01-04 15:30:00,39.5,20.4,30.34,SSE,147,2.0,8.0,46,0.00,,,0.00,Wunderground v.1.13,2013-01-04 20:30:00,
2013-01-04 15:35:00,39.5,19.4,30.34,ESE,114,3.0,8.0,44,0.00,,,0.00,Wunderground v.1.13,2013-01-04 20:35:00,
2013-01-04 15:40:00,39.1,19.5,30.34,ESE,117,4.0,8.0,45,0.00,,,0.00,Wunderground v.1.13,2013-01-04 20:40:00,
2013-01-04 15:45:00,38.8,18.7,30.34,ESE,116,5.0,12.0,44,0.00,,,0.00,Wunderground v.1.13,2013-01-04 20:45:00,
2013-01-04 15:55:00,38.0,18.5,30.34,ESE,110,7.0,7.0,45,0.00,,,0.00,Wunderground v.1.13,2013-01-04 20:55:00,
2013-01-04 16:00:00,38.2,19.7,30.34,SW,215,5.0,5.0,47,0.00,,,0.00,Wunderground v.1.13,2013-01-04 21:00:00,
2013-01-04 16:05:00,38.3,19.3,30.35,SE,131,2.0,8.0,46,0.00,,,0.00,Wunderground v.1.13,2013-01-04 21:05:00,
2013-01-04 16:10:00,38.3,19.3,30.35,ESE,119,2.0,2.0,46,0.00,,,0.00,Wunderground v.1.13,2013-01-04 21:10:00,
2013-01-04 16:15:00,38.2,19.2,30.35,SE,140,2.0,8.0,46,0.00,,,0.00,Wunderground v.1.13,2013-01-04 21:15:00,
2013-01-04 16:20:00,38.2,19.7,30.35,ESE,114,2.0,2.0,47,0.00,,,0.00,Wunderground v.1.13,2013-01-04 21:20:00,
2013-01-04 16:30:00,37.8,18.8,30.35,ESE,123,4.0,8.0,46,0.00,,,0.00,Wunderground v.1.13,2013-01-04 21:30:00,
2013-01-04 16:35:00,37.5,18.6,30.34,ESE,119,5.0,5.0,46,0.00,,,0.00,Wunderground v.1.13,2013-01-04 21:35:00,
2013-01-04 16:40:00,37.5,19.1,30.34,SE,133,5.0,5.0,47,0.00,,,0.00,Wunderground v.1.13,2013-01-04 21:40:00,
2013-01-04 16:45:00,37.3,19.4,30.34,SSE,152,4.0,4.0,48,0.00,,,0.00,Wunderground v.1.13,2013-01-04 21:45:00,
2013-01-04 16:50:00,37.3,18.9,30.34,ESE,116,3.0,3.0,47,0.00,,,0.00,Wunderground v.1.13,2013-01-04 21:50:00,
2013-01-04 17:00:00,37.3,19.9,30.34,SSE,148,1.0,8.0,49,0.00,,,0.00,Wunderground v.1.13,2013-01-04 22:00:00,
2013-01-04 17:05:00,37.2,19.3,30.34,SE,140,1.0,8.0,48,0.00,,,0.00,Wunderground v.1.13,2013-01-04 22:05:00,
2013-01-04 17:10:00,36.9,19.0,30.34,ESE,119,2.0,2.0,48,0.00,,,0.00,Wunderground v.1.13,2013-01-04 22:10:00,
2013-01-04 17:15:00,36.6,18.7,30.34,SE,127,3.0,8.0,48,0.00,,,0.00,Wunderground v.1.13,2013-01-04 22:15:00,
2013-01-04 17:20:00,36.3,18.9,30.35,ESE,117,4.0,4.0,49,0.00,,,0.00,Wunderground v.1.13,2013-01-04 22:20:00,
2013-01-04 17:25:00,35.9,18.1,30.35,ESE,123,5.0,8.0,48,0.00,,,0.00,Wunderground v.1.13,2013-01-04 22:25:00,
2013-01-04 17:35:00,35.6,18.3,30.36,South,171,3.0,8.0,49,0.00,,,0.00,Wunderground v.1.13,2013-01-04 22:35:00,
2013-01-04 17:40:00,35.3,18.0,30.36,SE,144,3.0,3.0,49,0.00,,,0.00,Wunderground v.1.13,2013-01-04 22:40:00,
2013-01-04 17:45:00,35.2,17.4,30.36,SE,141,3.0,8.0,48,0.00,,,0.00,Wunderground v.1.13,2013-01-04 22:45:00,
2013-01-04 17:50:00,35.0,17.7,30.36,SE,130,4.0,4.0,49,0.00,,,0.00,Wunderground v.1.13,2013-01-04 22:50:00,
2013-01-04 17:55:00,34.9,17.7,30.36,SSE,167,3.0,8.0,49,0.00,,,0.00,Wunderground v.1.13,2013-01-04 22:55:00,
2013-01-04 18:05:00,34.7,17.9,30.36,SE,126,3.0,8.0,50,0.00,,,0.00,Wunderground v.1.13,2013-01-04 23:05:00,
2013-01-04 18:10:00,34.7,18.4,30.36,ESE,117,3.0,8.0,51,0.00,,,0.00,Wunderground v.1.13,2013-01-04 23:10:00,
2013-01-04 18:15:00,34.6,17.8,30.36,SE,124,3.0,3.0,50,0.00,,,0.00,Wunderground v.1.13,2013-01-04 23:15:00,
2013-01-04 18:20:00,34.4,18.1,30.36,ESE,116,4.0,4.0,51,0.00,,,0.00,Wunderground v.1.13,2013-01-04 23:20:00,
2013-01-04 18:25:00,34.3,18.5,30.36,SE,138,3.0,3.0,52,0.00,,,0.00,Wunderground v.1.13,2013-01-04 23:25:00,
2013-01-04 18:30:00,34.3,18.5,30.36,ESE,117,2.0,2.0,52,0.00,,,0.00,Wunderground v.1.13,2013-01-04 23:30:00,
2013-01-04 18:35:00,34.1,18.3,30.36,ESE,103,2.0,2.0,52,0.00,,,0.00,Wunderground v.1.13,2013-01-04 23:35:00,
2013-01-04 18:40:00,34.1,18.7,30.36,ESE,106,2.0,2.0,53,0.00,,,0.00,Wunderground v.1.13,2013-01-04 23:40:00,
2013-01-04 18:45:00,34.0,18.6,30.36,ESE,109,2.0,2.0,53,0.00,,,0.00,Wunderground v.1.13,2013-01-04 23:45:00,
2013-01-04 18:50:00,33.8,18.9,30.36,ESE,107,2.0,8.0,54,0.00,,,0.00,Wunderground v.1.13,2013-01-04 23:50:00,
2013-01-04 18:55:00,33.8,19.3,30.36,ESE,104,3.0,3.0,55,0.00,,,0.00,Wunderground v.1.13,2013-01-04 23:55:00,
2013-01-04 19:05:00,33.5,19.0,30.36,SE,130,2.0,8.0,55,0.00,,,0.00,Wunderground v.1.13,2013-01-05 00:05:00,
2013-01-04 19:10:00,33.5,19.0,30.36,SE,136,2.0,8.0,55,0.00,,,0.00,Wunderground v.1.13,2013-01-05 00:10:00,
2013-01-04 19:15:00,33.5,19.5,30.36,SE,127,3.0,3.0,56,0.00,,,0.00,Wunderground v.1.13,2013-01-05 00:15:00,
2013-01-04 19:20:00,33.4,19.4,30.37,ESE,106,3.0,3.0,56,0.00,,,0.00,Wunderground v.1.13,2013-01-05 00:20:00,
2013-01-04 19:25:00,33.4,19.8,30.37,ESE,112,3.0,3.0,57,0.00,,,0.00,Wunderground v.1.13,2013-01-05 00:25:00,
2013-01-04 19:30:00,33.4,19.8,30.37,ESE,119,2.0,8.0,57,0.00,,,0.00,Wunderground v.1.13,2013-01-05 00:30:00,
2013-01-04 19:40:00,33.1,19.9,30.37,ESE,112,1.0,8.0,58,0.00,,,0.00,Wunderground v.1.13,2013-01-05 00:40:00,
2013-01-04 19:45:00,33.1,19.9,30.37,ESE,119,2.0,8.0,58,0.00,,,0.00,Wunderground v.1.13,2013-01-05 00:45:00,
2013-01-04 19:50:00,32.9,19.7,30.37,East,92,2.0,8.0,58,0.00,,,0.00,Wunderground v.1.13,2013-01-05 00:50:00,
2013-01-04 19:55:00,32.9,20.1,30.37,ESE,121,3.0,3.0,59,0.00,,,0.00,Wunderground v.1.13,2013-01-05 00:55:00,
2013-01-04 20:00:00,32.9,20.1,30.37,ESE,103,2.0,2.0,59,0.00,,,0.00,Wunderground v.1.13,2013-01-05 01:00:00,
2013-01-04 20:05:00,32.8,20.4,30.38,ESE,106,1.0,8.0,60,0.00,,,0.00,Wunderground v.1.13,2013-01-05 01:05:00,
2013-01-04 20:15:00,32.8,20.4,30.38,ESE,110,3.0,8.0,60,0.00,,,0.00,Wunderground v.1.13,2013-01-05 01:15:00,
2013-01-04 20:20:00,32.7,20.3,30.38,ESE,121,3.0,3.0,60,0.00,,,0.00,Wunderground v.1.13,2013-01-05 01:20:00,
2013-01-04 20:25:00,32.7,20.3,30.38,SE,136,3.0,8.0,60,0.00,,,0.00,Wunderground v.1.13,2013-01-05 01:25:00,
2013-01-04 20:30:00,32.7,20.3,30.38,SE,134,2.0,2.0,60,0.00,,,0.00,Wunderground v.1.13,2013-01-05 01:30:00,
2013-01-04 20:35:00,32.7,20.3,30.37,SE,127,2.0,8.0,60,0.00,,,0.00,Wunderground v.1.13,2013-01-05 01:35:00,
2013-01-04 20:45:00,32.7,20.3,30.37,ESE,119,2.0,8.0,60,0.00,,,0.00,Wunderground v.1.13,2013-01-05 01:45:00,
2013-01-04 20:50:00,32.7,20.3,30.37,ESE,120,3.0,8.0,60,0.00,,,0.00,Wunderground v.1.13,2013-01-05 01:50:00,
2013-01-04 20:55:00,32.7,20.3,30.37,ESE,116,3.0,3.0,60,0.00,,,0.00,Wunderground v.1.13,2013-01-05 01:55:00,
2013-01-04 21:00:00,32.7,20.3,30.37,ESE,110,2.0,8.0,60,0.00,,,0.00,Wunderground v.1.13,2013-01-05 02:00:00,
2013-01-04 21:05:00,32.5,20.5,30.37,ESE,113,2.0,8.0,61,0.00,,,0.00,Wunderground v.1.13,2013-01-05 02:05:00,
2013-01-04 21:10:00,32.5,20.5,30.37,ESE,109,3.0,8.0,61,0.00,,,0.00,Wunderground v.1.13,2013-01-05 02:10:00,
2013-01-04 21:20:00,32.4,20.4,30.36,SE,126,2.0,2.0,61,0.00,,,0.00,Wunderground v.1.13,2013-01-05 02:20:00,
2013-01-04 21:25:00,32.4,20.4,30.36,SE,131,2.0,2.0,61,0.00,,,0.00,Wunderground v.1.13,2013-01-05 02:25:00,
2013-01-04 21:30:00,32.4,20.4,30.36,ESE,104,1.0,8.0,61,0.00,,,0.00,Wunderground v.1.13,2013-01-05 02:30:00,
2013-01-04 21:35:00,32.4,20.4,30.36,East,99,1.0,1.0,61,0.00,,,0.00,Wunderground v.1.13,2013-01-05 02:35:00,
2013-01-04 21:40:00,32.2,20.6,30.36,SE,127,1.0,8.0,62,0.00,,,0.00,Wunderground v.1.13,2013-01-05 02:40:00,
2013-01-04 21:50:00,32.2,20.6,30.36,ESE,112,1.0,1.0,62,0.00,,,0.00,Wunderground v.1.13,2013-01-05 02:50:00,
2013-01-04 21:55:00,32.1,20.5,30.36,SE,127,2.0,8.0,62,0.00,,,0.00,Wunderground v.1.13,2013-01-05 02:55:00,
2013-01-04 22:00:00,32.1,20.5,30.36,ESE,113,2.0,8.0,62,0.00,,,0.00,Wunderground v.1.13,2013-01-05 03:00:00,
2013-01-04 22:05:00,32.1,20.5,30.36,East,83,2.0,2.0,62,0.00,,,0.00,Wunderground v.1.13,2013-01-05 03:05:00,
2013-01-04 22:10:00,31.9,20.3,30.36,East,82,2.0,2.0,62,0.00,,,0.00,Wunderground v.1.13,2013-01-05 03:10:00,
2013-01-04 22:15:00,31.9,20.3,30.36,ESE,117,2.0,2.0,62,0.00,,,0.00,Wunderground v.1.13,2013-01-05 03:15:00,
2013-01-04 22:20:00,31.9,20.3,30.37,ESE,112,1.0,8.0,62,0.00,,,0.00,Wunderground v.1.13,2013-01-05 03:20:00,
2013-01-04 22:25:00,31.8,20.3,30.37,SE,133,2.0,8.0,62,0.00,,,0.00,Wunderground v.1.13,2013-01-05 03:25:00,
2013-01-04 22:30:00,31.8,20.3,30.37,ESE,119,2.0,2.0,62,0.00,,,0.00,Wunderground v.1.13,2013-01-05 03:30:00,
2013-01-04 22:35:00,31.8,20.3,30.37,SE,130,2.0,8.0,62,0.00,,,0.00,Wunderground v.1.13,2013-01-05 03:35:00,
2013-01-04 22:40:00,31.8,20.6,30.37,ESE,116,3.0,8.0,63,0.00,,,0.00,Wunderground v.1.13,2013-01-05 03:40:00,
2013-01-04 22:45:00,31.8,20.6,30.37,East,100,3.0,8.0,63,0.00,,,0.00,Wunderground v.1.13,2013-01-05 03:45:00,
2013-01-04 22:55:00,31.6,20.4,30.37,ESE,113,3.0,3.0,63,0.00,,,0.00,Wunderground v.1.13,2013-01-05 03:55:00,
2013-01-04 23:00:00,31.6,20.4,30.37,ESE,110,3.0,8.0,63,0.00,,,0.00,Wunderground v.1.13,2013-01-05 04:00:00,
2013-01-04 23:05:00,31.6,20.4,30.38,SE,127,3.0,3.0,63,0.00,,,0.00,Wunderground v.1.13,2013-01-05 04:05:00,
2013-01-04 23:10:00,31.6,20.4,30.38,East,88,3.0,8.0,63,0.00,,,0.00,Wunderground v.1.13,2013-01-05 04:10:00,
2013-01-04 23:15:00,31.6,20.4,30.38,ESE,107,3.0,3.0,63,0.00,,,0.00,Wunderground v.1.13,2013-01-05 04:15:00,
2013-01-04 23:25:00,31.6,20.4,30.38,SE,127,2.0,8.0,63,0.00,,,0.00,Wunderground v.1.13,2013-01-05 04:25:00,
2013-01-04 23:30:00,31.6,20.8,30.38,ESE,112,1.0,1.0,64,0.00,,,0.00,Wunderground v.1.13,2013-01-05 04:30:00,
2013-01-04 23:35:00,31.5,20.7,30.38,SE,128,1.0,8.0,64,0.00,,,0.00,Wunderground v.1.13,2013-01-05 04:35:00,
2013-01-04 23:40:00,31.5,20.7,30.38,SSE,148,1.0,1.0,64,0.00,,,0.00,Wunderground v.1.13,2013-01-05 04:40:00,
2013-01-04 23:45:00,31.5,20.7,30.38,East,99,1.0,8.0,64,0.00,,,0.00,Wunderground v.1.13,2013-01-05 04:45:00,
2013-01-04 23:50:00,31.6,20.8,30.39,East,83,1.0,8.0,64,0.00,,,0.00,Wunderground v.1.13,2013-01-05 04:50:00,